Weather History for Sheridan, WY

Change the Weather History Date:

Tuesday, November 12, 2013

  Actual Average Record
Temperature  
Mean Temperature 36 °F 34 °F  
Max Temperature 55 °F 48 °F 81 °F (1999)
Min Temperature 17 °F 21 °F -16 °F (1916)
Degree Days  
Heating Degree Days 29 31  
Month to date heating degree days 349 336  
Since 1 July heating degree days 1211 1244  
Cooling Degree Days 0 0  
Month to date cooling degree days 0 0  
Year to date cooling degree days 592 419  
Moisture  
Dew Point 26 °F    
Average Humidity 77    
Maximum Humidity 100    
Minimum Humidity 54    
Precipitation  
Precipitation 0.00 in 0.03 in 0.34 in (1974)
Month to date precipitation 0.07 0.31  
Year to date precipitation 16.79 13.20  
Sea Level Pressure  
Sea Level Pressure 30.44 in    
Wind  
Wind Speed 3 mph (SSE)    
Max Wind Speed 7 mph    
Max Gust Speed 8 mph    
Visibility 6 miles    
Events Fog    
T = Trace of Precipitation, MM = Missing Value Source: NWS Daily Summary

Daily Weather History Graph

Daily Weather History Graph

Search for Another Location

Airport:

Trip Planner

Search our weather history database for the weather conditions in past years. The results will help you decide how hot, cold, wet, or windy it might be!

Date:

Astronomy

Nov. 12, 2013 Rise Set
Actual Time 7:01 AM MST 4:42 PM MST
Civil Twilight 6:29 AM MST 5:13 PM MST
Nautical Twilight 5:54 AM MST 5:49 PM MST
Astronomical Twilight 5:20 AM MST 6:23 PM MST
Moon 2:09 PM MST (11/12) 1:41 AM MST (11/12)
Length of Visible Light 10h 43m
Length of Day
9h 41m
Waxing Gibbous, 77% of the Moon is Illuminated
Nov 12
Waxing Gibbous
Nov 17
Full
Nov 25
Last Quarter
Dec 2
New
Dec 9
First Quarter

Hourly Weather History & Observations

Time (MST) Temp. Windchill Dew Point Humidity Pressure Visibility Wind Dir Wind Speed Gust Speed Precip Events Conditions
12:12 AM 30.0 °F 25.2 °F 28.9 °F 96% 30.49 in 0.5 mi SSE 4.6 mph - N/A Fog Light Freezing Fog
12:24 AM 30.0 °F 25.2 °F 28.9 °F 96% 30.49 in 0.2 mi SSE 4.6 mph - N/A Fog Light Freezing Fog
12:31 AM 30.0 °F - 28.9 °F 96% 30.49 in 0.5 mi Calm Calm - N/A Fog Light Freezing Fog
12:39 AM 30.0 °F - 28.9 °F 96% 30.49 in 0.2 mi Calm Calm - N/A Fog Light Freezing Fog
12:53 AM 30.0 °F 26.5 °F 28.9 °F 96% 30.61 in 0.2 mi SE 3.5 mph - N/A Fog Light Freezing Fog
1:53 AM 28.0 °F 24.2 °F 28.0 °F 100% 30.60 in 0.2 mi SSE 3.5 mph - N/A Fog Light Freezing Fog
2:53 AM 27.0 °F 23.0 °F 25.0 °F 92% 30.61 in 0.2 mi SSE 3.5 mph - N/A Fog Light Freezing Fog
3:53 AM 24.1 °F 19.7 °F 23.0 °F 96% 30.61 in 0.2 mi South 3.5 mph - N/A Fog Light Freezing Fog
4:20 AM 23.0 °F - 21.0 °F 92% 30.47 in 0.5 mi Calm Calm - N/A Fog Light Freezing Fog
4:28 AM 21.9 °F - 21.0 °F 96% 30.47 in 0.2 mi Calm Calm - N/A Fog Light Freezing Fog
4:35 AM 21.9 °F - 21.0 °F 96% 30.47 in 0.5 mi Calm Calm - N/A Fog Light Freezing Fog
4:44 AM 21.9 °F - 19.9 °F 92% 30.46 in 0.8 mi Calm Calm - N/A   Mist
4:53 AM 21.0 °F - 19.0 °F 92% 30.61 in 1.5 mi Calm Calm - N/A   Overcast
5:16 AM 21.0 °F - 18.0 °F 88% 30.45 in 0.5 mi Calm Calm - N/A Fog Light Freezing Fog
5:26 AM 21.0 °F 16.2 °F 19.9 °F 96% 30.45 in 0.2 mi NNW 3.5 mph - N/A Fog Light Freezing Fog
5:44 AM 21.9 °F - 19.0 °F 89% 30.44 in 0.5 mi Calm Calm - N/A Fog Light Freezing Fog
5:53 AM 21.0 °F - 19.0 °F 92% 30.58 in 0.5 mi Calm Calm - N/A Fog Light Freezing Fog
6:12 AM 19.0 °F 13.9 °F 16.0 °F 88% 30.43 in 0.8 mi South 3.5 mph - N/A   Mist
6:20 AM 19.0 °F - 16.0 °F 88% 30.42 in 1.5 mi Calm Calm - N/A   Mostly Cloudy
6:35 AM 19.0 °F - 16.0 °F 88% 30.41 in 4.0 mi Calm Calm - N/A   Mostly Cloudy
6:53 AM 17.1 °F 10.0 °F 14.0 °F 88% 30.57 in 10.0 mi NW 4.6 mph - N/A   Mostly Cloudy
7:04 AM 18.0 °F 12.7 °F 16.0 °F 92% 30.41 in 10.0 mi NNW 3.5 mph - N/A   Scattered Clouds
7:53 AM 21.0 °F - 19.0 °F 92% 30.57 in 10.0 mi Calm Calm - N/A   Clear
8:53 AM 26.1 °F 21.9 °F 23.0 °F 88% 30.54 in 10.0 mi South 3.5 mph - N/A   Clear
9:53 AM 32.0 °F 28.7 °F 28.0 °F 85% 30.49 in 10.0 mi East 3.5 mph - N/A   Clear
10:53 AM 37.9 °F - 30.9 °F 76% 30.47 in 10.0 mi Calm Calm - N/A   Unknown
11:53 AM 46.0 °F 44.8 °F 34.0 °F 63% 30.41 in 10.0 mi Variable 3.5 mph - N/A   Clear
12:53 PM 50.0 °F - 37.0 °F 61% 30.36 in 10.0 mi Calm Calm - N/A   Clear
1:53 PM 53.1 °F - 37.9 °F 57% 30.33 in 10.0 mi ENE 3.5 mph - N/A   Clear
2:53 PM 55.0 °F - 39.0 °F 55% 30.31 in 10.0 mi North 5.8 mph - N/A   Clear
3:53 PM 51.1 °F - 39.9 °F 66% 30.31 in 10.0 mi NW 5.8 mph - N/A   Clear
4:53 PM 37.0 °F 34.5 °F 32.0 °F 82% 30.35 in 10.0 mi WSW 3.5 mph - N/A   Clear
5:53 PM 36.0 °F 32.1 °F 32.0 °F 86% 30.34 in 10.0 mi SSW 4.6 mph - N/A   Clear
6:53 PM 33.1 °F - 30.0 °F 89% 30.35 in 10.0 mi Calm Calm - N/A   Clear
7:53 PM 35.1 °F 32.2 °F 30.9 °F 85% 30.33 in 10.0 mi NNE 3.5 mph - N/A   Clear
8:53 PM 33.1 °F - 28.9 °F 85% 30.31 in 10.0 mi Calm Calm - N/A   Clear
9:53 PM 35.1 °F 32.2 °F 28.9 °F 78% 30.28 in 10.0 mi WSW 3.5 mph - N/A   Clear
10:53 PM 35.1 °F - 28.0 °F 76% 30.25 in 10.0 mi Calm Calm - N/A   Clear
11:53 PM 37.9 °F 34.4 °F 26.1 °F 62% 30.22 in 10.0 mi NE 4.6 mph - N/A   Clear